Vertical_Velocity
0 2 -0 0 -3 -3 -0 -2 0 -0 1 1 1 0 -3 0 -4 -3 0 3 -3 -1 -0 -0 2 1 1 -0 -0 2 -1 1 1 -1 2 -4 -1 1 -0 1 -1 -2 0 0 -0 0 -2 -1 -0
0 2 -0 -1 -5 -0 -1 -1 0 -1 -1 -1 1 1 -0 1 -0 -1 -0 1 0 -0 -3 0 1 2 1 1 -1 -1 0 0 1 1 -1 -2 -1 1 -0 0 2 -1 -2 -0 1 0 1 -2 0
3 0 -2 -3 -1 -2 -2 -0 -0 -2 2 -1 -0 1 0 1 0 1 0 0 0 -1 -4 0 1 2 1 2 1 -0 -1 -1 2 -1 -1 -1 -1 1 -0 1 -3 -2 -1 -1 1 -3 1 0 1
0 -0 -1 -2 -1 -2 -1 -0 0 -2 3 2 -1 0 1 1 4 -0 3 1 2 1 -2 0 -0 0 1 1 0 -0 -1 -3 -1 0 -1 1 -1 4 -1 2 -1 0 -3 1 -1 -1 -1 1 -1
0 1 -1 -0 -1 -0 0 -0 1 -0 0 1 1 1 0 2 2 0 2 -1 4 2 2 -3 3 1 -1 -1 0 2 -1 -0 -0 -0 1 2 -1 -0 1 0 -0 -1 -1 -1 1 1 0 -2 -0
-0 -1 0 -1 -0 0 1 -0 -0 0 1 -1 1 -1 1 0 3 -1 3 -1 3 -0 2 -1 3 4 -1 -2 -0 2 2 1 -1 -1 -0 2 -2 0 0 -0 -1 -2 -1 1 0 -0 1 0 -1
-2 -1 -2 -1 -1 1 -0 2 -2 1 -0 -0 2 -0 -2 0 1 2 1 2 2 2 -2 4 1 2 1 -1 -2 1 3 0 2 -1 1 -3 -2 -5 1 0 1 -0 1 -1 -2 -1 -2 -2 0
3 -3 2 -1 -2 -5 0 -0 0 -1 2 1 1 2 2 2 3 5 4 1 1 1 2 1 -1 3 0 -0 -2 1 2 0 2 0 -0 -0 -0 -1 1 -2 1 -2 1 1 -1 0 2 1 1
2 -1 -0 -3 -0 -2 1 -0 2 -2 -0 -2 -0 -1 -0 0 1 6 3 4 1 2 1 2 0 2 3 0 -2 -1 1 0 0 0 0 -1 -0 1 -0 -0 -0 -2 2 -1 0 -2 2 1 1
-1 0 -3 -2 -1 -1 0 -1 0 -0 1 -1 2 4 2 10 4 4 3 0 5 2 2 2 1 2 4 2 0 -2 0 -1 0 1 1 -1 -1 -1 0 0 -2 -1 0 -0 0 -0 -0 1 0
1 -2 -0 0 2 -0 -0 -0 0 -1 -0 0 1 -3 -3 2 7 7 -4 -2 -6 -1 1 -1 0 2 4 1 1 0 1 1 1 -0 -0 -0 -1 -1 -0 -0 0 1 1 -1 -0 0 1 0 1
0 0 -0 -1 1 -2 -1 -1 0 -0 -1 2 2 4 -2 -0 0 2 2 -1 -3 -4 -1 -1 -2 -1 2 3 2 2 1 0 0 0 -0 -0 -1 -0 0 -0 -1 1 -0 -0 1 -0 0 0 0
-1 0 0 1 1 -1 -1 -0 -1 -0 1 -2 3 1 -2 1 2 4 8 2 1 -2 -1 -0 -0 -0 0 2 1 0 0 0 1 0 1 1 1 1 -1 -0 1 -0 -0 -0 -0 -0 -0 0 1
-2 -0 0 2 0 -1 -2 0 -3 3 2 1 -1 -3 -0 -1 0 2 -0 3 0 5 0 -1 -1 0 1 1 1 0 0 1 -0 -0 1 1 1 1 0 -0 -0 0 0 -0 -1 -0 0 1 1
1 -4 -0 0 1 0 -1 -2 -1 -1 -6 -3 -4 -4 -3 2 5 -0 7 2 4 6 -0 -0 -1 -2 -0 1 2 1 2 0 -1 0 -1 0 0 1 1 1 0 1 0 0 -1 0 0 1 -1
-2 -3 0 0 0 -1 2 -7 -4 -1 -3 -4 -4 -5 -4 -2 2 -2 3 6 -0 3 0 -1 1 0 -1 -1 -0 -0 -0 0 1 -1 0 0 1 1 -1 1 1 1 -0 -1 -1 0 0 0 -0
-0 -1 0 1 0 -1 -0 -3 -5 -0 -2 -1 -4 -6 -3 -8 4 1 1 2 1 6 2 4 1 -1 0 1 -0 1 1 -1 -0 0 0 1 -0 -0 1 1 2 1 1 0 0 0 -1 0 0
0 0 1 -1 -3 2 2 -4 -1 -3 -1 -4 -3 -4 -5 -5 -2 0 5 0 -1 5 2 5 2 -0 1 1 -0 -1 -1 -0 -1 -2 -3 -2 -1 1 -0 0 1 1 -1 -1 -0 1 1 -2 0
-2 -1 -1 0 -1 -0 -3 -1 -2 -1 1 0 -4 -6 -9 -6 6 0 1 1 -1 -2 1 3 0 2 -1 -3 -2 -3 -5 -1 -1 -0 2 1 -1 -1 -1 -1 -1 1 1 3 1 -1 -1 -3 2
-0 -1 1 -0 0 4 0 -4 -2 0 -4 -3 -6 -7 -7 -4 2 4 3 0 -2 0 2 3 1 -3 -2 -2 -0 -1 1 -2 -0 1 1 0 0 2 1 3 2 3 -1 -0 1 1 -2 -1 0
0 -2 0 -4 1 -0 -0 -1 1 -1 1 3 -0 -12 2 -3 -6 -6 1 3 -0 -1 1 2 1 2 1 1 -1 -1 0 -1 -0 1 1 -0 1 -0 -2 -1 -0 1 0 -2 1 1 2 -1 -3
-1 -1 -1 -0 -2 -1 -1 -4 0 -1 -1 2 -2 -1 -2 1 4 -2 -0 -1 4 1 2 1 1 0 0 0 1 1 1 0 1 0 0 -0 0 0 1 1 0 1 1 -2 2 2 1 1 -3
-1 -1 -1 -1 -1 -1 -0 2 -10 2 2 -2 -3 -7 -8 -7 0 -2 -6 -2 2 0 1 1 2 2 1 1 1 1 0 0 -0 0 1 1 0 1 2 2 2 2 1 0 1 -0 1 1 1
-1 -2 -2 -1 -1 1 -3 -1 -4 -1 -8 -1 -1 -2 -9 -14 -6 -0 -1 0 3 1 -1 -1 -0 -0 -0 -1 -0 -0 0 1 1 1 1 1 0 1 0 -0 0 0 0 -1 1 2 1 2 1
0 -3 -1 -3 -0 -5 -0 1 -11 -3 -2 -2 -2 -2 -3 -3 2 5 -2 -7 -5 0 -0 -1 -0 -0 -0 -1 -1 -2 -2 -2 -1 0 1 0 0 -0 -1 -1 -0 -0 -1 -1 -0 1 3 3 3
-1 -3 -5 -4 -1 -3 -0 -2 -16 -2 -1 1 -1 -0 1 -3 -1 1 3 5 1 -0 -0 1 0 0 -1 -1 -1 -1 -2 -2 -2 -1 -0 -0 -0 1 -1 -1 -1 -1 -0 -0 1 2 -0 -2 -2
-3 1 -3 -3 0 -1 -3 -5 -7 -1 -3 -1 -2 0 -2 -0 1 2 6 2 5 5 3 3 -1 -1 -1 -1 -1 -0 -0 -1 -1 -1 -2 -2 -1 -2 -2 -1 -1 -0 -0 0 -1 -1 -1 -2 -1
-0 -3 -4 -1 -1 -0 -2 -1 -7 -1 -0 -1 -2 -2 -0 -0 -1 2 3 4 4 2 1 0 -1 -1 -0 -0 -2 -1 0 -1 -2 -2 -2 -2 -2 -2 -1 -1 -1 -1 -0 0 -1 1 0 2 1
2 1 -1 -4 -2 -2 -1 -6 -4 -2 -1 -0 -2 -1 -2 1 1 -1 3 4 2 1 0 0 1 1 1 0 1 -0 -1 -1 0 -0 0 -1 0 -0 1 1 -0 -0 1 0 1 1 1 1 2
-0 -2 -2 1 -1 0 -1 -14 -1 -1 -0 0 -3 -2 3 -3 2 1 -1 -1 -0 1 -2 -1 -1 1 -0 -1 -0 -0 0 -1 0 0 0 -1 1 1 -1 -0 0 -1 1 -0 -0 0 -0 -1 -2
Height
1528 1528 1529 1531 1539 1541 1545 1541 1538 1535 1534 1533 1533 1532 1531 1531 1533 1541 1534 1539 1544 1549 1552 1557 1561 1563 1565 1567 1569 1571 1572 1573 1573 1573 1573 1574 1576 1577 1576 1576 1576 1577 1577 1578 1579 1581 1581 1582 1582
1527 1528 1530 1530 1539 1544 1541 1538 1537 1534 1532 1531 1532 1532 1532 1532 1532 1532 1535 1539 1544 1549 1552 1557 1560 1564 1565 1567 1570 1571 1572 1573 1573 1574 1574 1576 1577 1578 1578 1578 1578 1579 1579 1580 1580 1582 1583 1582 1583
1526 1528 1529 1532 1542 1541 1537 1536 1535 1532 1529 1529 1532 1532 1532 1532 1531 1533 1535 1539 1543 1549 1553 1557 1561 1564 1566 1568 1570 1571 1572 1573 1574 1575 1576 1577 1578 1580 1580 1580 1580 1580 1581 1582 1582 1583 1584 1584 1585
1525 1528 1530 1532 1538 1536 1533 1534 1533 1531 1529 1529 1531 1533 1533 1531 1532 1534 1536 1540 1543 1548 1552 1557 1561 1564 1567 1569 1570 1572 1572 1574 1575 1576 1577 1578 1580 1581 1582 1582 1582 1582 1583 1583 1584 1585 1586 1586 1587
1523 1525 1530 1535 1535 1533 1533 1532 1533 1532 1530 1530 1530 1532 1533 1533 1533 1535 1538 1541 1544 1548 1553 1557 1561 1564 1567 1570 1571 1573 1574 1575 1576 1577 1578 1579 1581 1583 1583 1583 1583 1584 1584 1585 1585 1586 1587 1588 1588
1523 1522 1528 1532 1534 1530 1531 1531 1532 1532 1532 1530 1531 1532 1535 1535 1536 1537 1540 1544 1548 1550 1554 1558 1562 1564 1567 1570 1572 1574 1575 1576 1577 1578 1579 1580 1582 1583 1584 1584 1585 1585 1586 1586 1586 1587 1588 1589 1589
1517 1523 1526 1527 1532 1530 1530 1531 1532 1533 1533 1533 1534 1533 1536 1536 1537 1538 1541 1545 1548 1552 1556 1558 1562 1564 1567 1569 1573 1575 1575 1576 1578 1579 1580 1582 1583 1584 1584 1585 1586 1587 1588 1588 1589 1589 1588 1589 1589
1518 1522 1526 1528 1528 1527 1529 1531 1532 1532 1534 1534 1534 1534 1536 1537 1538 1540 1542 1546 1549 1552 1556 1559 1561 1564 1566 1569 1572 1575 1576 1577 1578 1580 1581 1582 1584 1585 1586 1587 1587 1588 1588 1588 1589 1589 1590 1590 1591
1517 1530 1525 1523 1526 1526 1528 1530 1532 1533 1533 1535 1537 1537 1536 1537 1540 1542 1543 1546 1549 1553 1556 1559 1561 1564 1566 1569 1572 1574 1576 1577 1578 1580 1581 1583 1584 1585 1586 1587 1588 1588 1589 1589 1589 1589 1590 1590 1591
1517 1521 1521 1519 1521 1524 1527 1528 1530 1534 1534 1536 1537 1538 1536 1538 1541 1542 1543 1546 1548 1552 1555 1558 1561 1564 1566 1568 1571 1574 1575 1577 1578 1580 1581 1583 1584 1585 1586 1586 1587 1588 1588 1589 1589 1589 1589 1590 1590
1515 1517 1518 1521 1521 1522 1526 1529 1530 1531 1535 1536 1537 1536 1537 1537 1542 1544 1545 1547 1550 1552 1555 1558 1561 1563 1566 1568 1570 1573 1575 1577 1578 1580 1581 1582 1583 1584 1585 1586 1586 1587 1587 1588 1589 1589 1589 1589 1589
1515 1516 1518 1522 1521 1522 1526 1529 1530 1530 1533 1535 1537 1538 1537 1539 1540 1543 1545 1547 1548 1551 1554 1557 1560 1563 1565 1567 1570 1572 1574 1576 1578 1579 1580 1581 1582 1583 1584 1584 1585 1586 1586 1587 1587 1588 1588 1588 1588
1512 1514 1518 1520 1521 1523 1526 1529 1530 1529 1530 1533 1535 1537 1537 1539 1541 1544 1548 1547 1548 1550 1552 1555 1558 1561 1564 1566 1568 1570 1573 1574 1576 1577 1578 1580 1581 1582 1582 1583 1584 1585 1585 1586 1586 1586 1587 1587 1587
1509 1513 1517 1520 1522 1523 1524 1528 1529 1528 1528 1530 1533 1534 1536 1538 1540 1543 1544 1545 1547 1549 1551 1553 1555 1559 1562 1565 1567 1569 1571 1573 1574 1576 1577 1578 1579 1580 1581 1582 1583 1583 1584 1584 1584 1585 1585 1585 1585
1508 1518 1520 1521 1522 1524 1524 1524 1522 1525 1526 1527 1530 1533 1535 1536 1538 1539 1542 1543 1547 1550 1551 1552 1555 1557 1560 1563 1565 1567 1569 1571 1573 1574 1576 1577 1578 1579 1579 1580 1581 1582 1582 1582 1583 1583 1583 1583 1583
1509 1517 1523 1521 1522 1525 1526 1519 1518 1521 1523 1525 1528 1532 1534 1534 1535 1537 1540 1542 1545 1546 1548 1550 1553 1556 1559 1562 1564 1566 1568 1569 1571 1572 1574 1575 1576 1577 1578 1578 1579 1580 1580 1580 1581 1581 1581 1580 1580
1513 1518 1519 1524 1523 1524 1525 1522 1517 1518 1518 1522 1527 1531 1533 1532 1532 1534 1537 1538 1542 1544 1546 1547 1549 1553 1557 1560 1562 1564 1566 1567 1569 1570 1572 1573 1574 1575 1575 1576 1577 1577 1577 1577 1577 1578 1577 1577 1577
1515 1517 1516 1522 1525 1527 1528 1526 1521 1519 1521 1520 1526 1528 1530 1532 1531 1533 1534 1536 1538 1540 1543 1544 1547 1551 1554 1557 1559 1561 1563 1564 1566 1567 1569 1570 1571 1572 1572 1572 1573 1573 1573 1574 1574 1574 1573 1573 1573
1512 1514 1514 1518 1518 1523 1523 1521 1520 1521 1519 1514 1520 1526 1528 1528 1529 1531 1532 1534 1535 1538 1540 1542 1544 1547 1550 1553 1555 1557 1559 1561 1562 1563 1565 1566 1566 1567 1567 1568 1568 1569 1569 1569 1569 1569 1568 1568 1568
1513 1517 1520 1519 1518 1522 1521 1520 1518 1520 1518 1515 1521 1522 1523 1524 1525 1528 1530 1531 1533 1535 1538 1539 1541 1544 1547 1550 1552 1554 1555 1556 1558 1558 1560 1561 1561 1562 1563 1563 1563 1563 1564 1564 1564 1563 1563 1562 1563
1519 1518 1520 1520 1519 1521 1520 1520 1518 1517 1516 1514 1514 1515 1516 1517 1521 1525 1527 1528 1530 1532 1535 1536 1539 1541 1543 1545 1547 1549 1550 1551 1553 1554 1555 1556 1556 1556 1557 1557 1557 1557 1557 1557 1558 1557 1557 1556 1557
1516 1515 1515 1517 1520 1523 1520 1519 1514 1511 1513 1511 1509 1507 1507 1510 1516 1521 1523 1524 1526 1528 1530 1533 1535 1537 1539 1541 1543 1545 1546 1547 1548 1548 1549 1550 1550 1550 1551 1551 1551 1551 1551 1551 1551 1552 1551 1551 1551
1515 1515 1517 1519 1523 1523 1525 1526 1511 1506 1504 1503 1506 1506 1504 1506 1510 1516 1519 1521 1522 1524 1527 1529 1531 1533 1535 1537 1539 1540 1541 1542 1542 1543 1543 1543 1544 1544 1544 1545 1545 1544 1544 1545 1545 1545 1546 1546 1546
1512 1516 1520 1526 1526 1527 1522 1520 1510 1505 1498 1497 1498 1499 1501 1504 1506 1510 1513 1515 1518 1519 1523 1526 1529 1531 1532 1534 1535 1536 1537 1537 1537 1537 1537 1537 1538 1538 1538 1539 1539 1538 1538 1539 1539 1540 1540 1541 1540
1511 1518 1527 1534 1530 1526 1524 1525 1503 1493 1492 1492 1492 1495 1495 1498 1499 1501 1504 1509 1514 1515 1518 1522 1525 1527 1528 1530 1531 1531 1532 1532 1533 1533 1533 1533 1533 1533 1533 1533 1533 1533 1533 1533 1533 1534 1535 1535 1535
1513 1514 1523 1528 1525 1523 1526 1515 1497 1487 1487 1487 1490 1489 1491 1493 1493 1494 1498 1502 1507 1510 1514 1517 1520 1523 1525 1526 1527 1527 1528 1528 1529 1530 1530 1530 1530 1529 1529 1529 1529 1529 1529 1528 1529 1529 1530 1531 1531
1515 1515 1519 1527 1542 1534 1514 1512 1494 1485 1483 1481 1481 1483 1485 1488 1489 1490 1493 1498 1502 1505 1510 1513 1517 1520 1521 1522 1523 1524 1524 1524 1524 1525 1525 1525 1525 1525 1525 1524 1524 1524 1524 1524 1524 1525 1525 1526 1526
1511 1514 1519 1525 1528 1521 1513 1514 1494 1485 1485 1483 1480 1479 1479 1481 1483 1485 1490 1495 1499 1505 1509 1511 1514 1517 1518 1518 1519 1521 1520 1520 1520 1520 1520 1520 1520 1520 1519 1519 1518 1518 1519 1519 1519 1519 1520 1520 1520
1512 1512 1516 1517 1521 1513 1513 1497 1487 1483 1482 1482 1479 1479 1478 1477 1479 1483 1490 1494 1499 1504 1507 1510 1512 1514 1515 1515 1516 1516 1516 1517 1517 1516 1515 1515 1515 1515 1515 1513 1513 1513 1513 1513 1514 1514 1514 1515 1515
1502 1505 1507 1507 1514 1529 1525 1493 1480 1480 1480 1481 1479 1477 1477 1478 1479 1484 1490 1494 1499 1502 1505 1507 1509 1511 1512 1512 1513 1512 1512 1512 1513 1513 1512 1512 1512 1511 1511 1509 1508 1508 1509 1508 1509 1509 1509 1510 1511